This is the latest recevied weather packets stored in our database for station/object KB9MLJ. If no packets are shown the sender has not sent any weather packets the latest 1 day(s).
| Time | Temp. | Humidity | Pressure | Rain* | Wind** | Luminosity | Snow |
|---|---|---|---|---|---|---|---|
| 1778016879 | 12.22° C | 53% | 1009.2 hPa | 0 mm | 1.79 m/s, 294° | 146 W/m² | - |
| 1778016575 | 12.22° C | 54% | 1009.2 hPa | 0 mm | 1.79 m/s, 333° | 132 W/m² | - |
| 1778016272 | 12.22° C | 53% | 1009.2 hPa | 0 mm | 1.34 m/s, 336° | 128 W/m² | - |
| 1778015968 | 12.22° C | 53% | 1009.2 hPa | 0 mm | 1.79 m/s, 325° | 114 W/m² | - |
| 1778015666 | 12.22° C | 53% | 1009.2 hPa | 0 mm | 2.24 m/s, 335° | 99 W/m² | - |
| 1778015362 | 12.22° C | 53% | 1009.2 hPa | 0 mm | 1.79 m/s, 340° | 85 W/m² | - |
| 1778015063 | 12.22° C | 55% | 1009.5 hPa | 0 mm | 2.68 m/s, 321° | 85 W/m² | - |
| 1778014756 | 12.22° C | 53% | 1009.5 hPa | 0 mm | 2.68 m/s, 298° | 79 W/m² | - |
| 1778014455 | 12.22° C | 54% | 1009.5 hPa | 0 mm | 3.58 m/s, 272° | 72 W/m² | - |
| 1778014151 | 12.22° C | 54% | 1009.2 hPa | 0 mm | 1.79 m/s, 280° | 72 W/m² | - |
| 1778013849 | 12.22° C | 54% | 1009.5 hPa | 0 mm | 1.79 m/s, 288° | 80 W/m² | - |
| 1778013546 | 12.22° C | 53% | 1009.2 hPa | 0 mm | 3.58 m/s, 264° | 85 W/m² | - |
| 1778013242 | 12.22° C | 55% | 1009.5 hPa | 0 mm | 1.79 m/s, 307° | 92 W/m² | - |
| 1778012939 | 12.22° C | 55% | 1009.5 hPa | 0 mm | 3.13 m/s, 323° | 90 W/m² | - |
| 1778012635 | 12.22° C | 55% | 1009.9 hPa | 0 mm | 3.58 m/s, 300° | 95 W/m² | - |
| 1778012332 | 12.22° C | 55% | 1009.9 hPa | 0 mm | 2.24 m/s, 291° | 94 W/m² | - |
| 1778012029 | 12.22° C | 56% | 1009.9 hPa | 0 mm | 3.13 m/s, 298° | 96 W/m² | - |
| 1778011727 | 12.22° C | 53% | 1009.5 hPa | 0 mm | 2.68 m/s, 302° | 99 W/m² | - |
| 1778011424 | 12.22° C | 52% | 1009.5 hPa | 0 mm | 3.58 m/s, 340° | 102 W/m² | - |
| 1778011119 | 12.22° C | 53% | 1009.2 hPa | 0 mm | 2.24 m/s, 305° | 121 W/m² | - |
| 1778010816 | 12.78° C | 53% | 1009.5 hPa | 0 mm | 2.68 m/s, 317° | 129 W/m² | - |
| 1778010514 | 12.78° C | 56% | 1009.5 hPa | 0 mm | 0.45 m/s, 324° | 140 W/m² | - |
| 1778010212 | 12.22° C | 55% | 1009.5 hPa | 0 mm | 2.68 m/s, 339° | 158 W/m² | - |
| 1778009912 | 12.22° C | 54% | 1009.5 hPa | 0 mm | 2.68 m/s, 303° | 161 W/m² | - |
| 1778009610 | 12.22° C | 55% | 1009.5 hPa | 0 mm | 2.24 m/s, 337° | 163 W/m² | - |
* Rain latest hour (hover to see other rain measurements)
** Current wind speed in m/s (hover to see current wind gust speed)